Location: Boiro
(42.6475°N, 8.8834°W)
Time: 15:35:01
(UTC+01:00)

Vanguard 3 - Pass Details

Date: 01 December 2021
Orbit: 508 x 3260 km, 33.3° (Epoch: 20 January)

Event Time Altitude Azimuth Distance (km) Brightness Sun altitude
Rises 06:42:49 0° 242° (WSW) 7,201 - -22.1°
Exits shadow 06:46:08 - 240° (WSW) 6,539 11.3 -21.5°
Reaches altitude 10° 06:47:50 10° 239° (WSW) 6,192 11.2 -21.2°
Maximum altitude 07:06:27 55° 169° (S) 3,139 10.2 -17.8°
Drops below altitude 10° 07:19:16 10° 97° (E) 4,423 12.2 -15.5°
Sets 07:22:12 0° 92° (E) 5,105 12.9 -15.0°
